Location: Castillon
(43.1358°N, 0.8654°E)
Time: 18:20:58
(UTC+00:00)

Cosmos 1833 Rocket - Pass Details

Date: 24 January 2021
Orbit: 833 x 839 km, 71.0° (Epoch: 28 February)

Event Time Altitude Azimuth Distance (km) Brightness Sun altitude
Rises 18:25:03 0° 341° (NNW) 3,390 5.9 -15.8°
Reaches altitude 10° 18:27:42 10° 350° (N) 2,453 5.1 -16.2°
Maximum altitude 18:32:53 37° 57° (ENE) 1,289 3.2 -17.2°
Enters shadow 18:34:55 28° 98° (E) 1,530 3.5 -17.5°
